Location: Recife
(8.0585°S, 34.8848°W)
Time: 08:07:01
(UTC-03:00)

Courier 1B - Pass Details

Date: 22 April 2026
Orbit: 962 x 1209 km, 28.3° (Epoch: 13 May)

Event Time Altitude Azimuth Distance (km) Brightness Sun altitude
Rises 10:31:49 0° 231° (SW) 4,115 10.5 66.6°
Reaches altitude 10° 10:34:58 10° 223° (SW) 3,146 10.1 67.0°
Maximum altitude 10:42:08 37° 157° (SSE) 1,746 9.2 67.7°
Drops below altitude 10° 10:49:03 10° 92° (E) 3,044 10.3 68.4°
Sets 10:52:02 0° 84° (E) 3,968 10.8 68.6°
